DW5406 Weather Reports


Display with metric or nautical units.
time (UTC)temp
F
wind
direction
speed
MPH
gust
MPH
rain 1hr
in
rain 24hr
in
rain mn
in
humidity
%
barometer
mb
20190916095010 63 250 0.0 1.0 0.00 0.00 0.00 68 1018.8
20190916093510 63 250 0.0 1.0 0.00 0.00 0.00 67 1018.9
20190916092010 62 250 0.0 3.0 0.00 0.00 0.00 67 1018.8
20190916080511 56 277 0.0 0.0 0.00 0.00 0.00 79 1019.1
20190916075011 56 277 0.0 0.0 0.00 0.00 0.00 80 1019.3
20190916073510 55 277 0.0 0.0 0.00 0.00 0.00 81 1019.3
20190916072011 54 277 0.0 0.0 0.00 0.00 0.00 81 1019.1
20190916070510 53 277 0.0 0.0 0.00 0.00 0.00 82 1019.6
20190916063510 51 277 0.0 0.0 0.00 0.00 0.00 85 1019.0
20190916052010 49 277 0.0 0.0 0.00 0.00 0.00 85 1019.6
20190916045010 49 277 0.0 0.0 0.00 0.00 0.00 85 1019.7
20190916040511 49 277 0.0 0.0 0.00 0.00 0.00 84 1019.7
20190916032010 49 277 0.0 0.0 0.00 0.00 0.00 84 1019.8
20190916030510 49 277 0.0 0.0 0.00 0.00 0.00 84 1020.0
20190916025010 49 277 0.0 0.0 0.00 0.00 0.00 84 1020.1
20190916023510 48 277 0.0 0.0 0.00 0.00 0.00 85 1020.1
20190916020511 48 277 0.0 0.0 0.00 0.00 0.00 84 1020.1
20190916015010 48 277 0.0 0.0 0.00 0.00 0.00 84 1020.3
20190916013510 48 277 0.0 0.0 0.00 0.00 0.00 83 1020.2
20190916012009 48 277 0.0 0.0 0.00 0.00 0.00 82 1020.3
20190916010509 48 277 0.0 0.0 0.00 0.00 0.00 81 1020.4
20190916005010 49 277 0.0 0.0 0.00 0.00 0.00 81 1020.3
20190916003510 49 277 0.0 0.0 0.00 0.00 0.00 80 1020.3
20190915233510 50 277 0.0 0.0 0.00 0.00 0.00 77 1020.3
20190915232010 50 277 0.0 0.0 0.00 0.00 0.00 76 1020.1
20190915223511 51 277 0.0 0.0 0.00 0.00 0.00 73 1020.4
20190915222012 52 277 0.0 0.0 0.00 0.00 0.00 71 1020.3
20190915205011 55 277 0.0 0.0 0.00 0.00 0.00 63 1020.1
20190915203511 56 277 0.0 0.0 0.00 0.00 0.00 61 1019.9
20190915202011 57 277 0.0 0.0 0.00 0.00 0.00 58 1019.9
20190915200510 58 277 0.0 0.0 0.00 0.00 0.00 56 1019.8
20190915195010 60 277 0.0 0.0 0.00 0.00 0.00 55 1019.8
20190915193510 60 277 0.0 0.0 0.00 0.00 0.00 55 1019.9
20190915192011 62 277 0.0 0.0 0.00 0.00 0.00 51 1019.7
20190915190511 63 277 0.0 0.0 0.00 0.00 0.00 49 1019.8
20190915185011 64 277 0.0 0.0 0.00 0.00 0.00 47 1019.6
20190915183511 65 277 0.0 0.0 0.00 0.00 0.00 45 1019.7
20190915182010 67 277 0.0 0.0 0.00 0.00 0.00 46 1019.5
20190915180510 68 277 0.0 0.0 0.00 0.00 0.00 43 1019.1
20190915162011 76 265 0.0 3.0 0.00 0.00 0.00 29 1019.1
20190915155010 78 287 2.0 7.0 0.00 0.00 0.00 26 1019.4
20190915152011 79 319 1.0 6.0 0.00 0.00 0.00 26 1019.6
20190915133511 80 253 2.0 8.0 0.00 0.00 0.00 38 1020.6
20190915130510 80 269 0.0 1.0 0.00 0.00 0.00 41 1021.0
20190915122011 80 278 1.0 4.0 0.00 0.00 0.00 41 1021.5
20190915120511 78 275 0.0 1.0 0.00 0.00 0.00 44 1021.8
20190915113510 77 246 0.0 3.0 0.00 0.00 0.00 48 1022.1
20190915110511 75 235 1.0 2.0 0.00 0.00 0.00 49 1022.3
20190915103510 75 261 1.0 6.0 0.00 0.00 0.00 50 1022.6
20190915102011 72 187 0.0 1.0 0.00 0.00 0.00 55 1022.8